Location: Maccacari
(45.1333°N, 11.1333°E)
Time: 01:06:24
(UTC+00:00)

Tiros 1 despin weight - Pass Details

Date: 28 January 2021
Orbit: 593 x 642 km, 48.2° (Epoch: 07 March)

Event Time Altitude Azimuth Distance (km) Brightness Sun altitude
Rises 12:56:21 0° 248° (WSW) 2,903 ? 23.7°
Reaches altitude 10° 12:58:40 10° 248° (WSW) 1,990 ? 23.6°
Maximum altitude 13:03:16 89° 154° (SSE) 621 ? 23.2°
Drops below altitude 10° 13:07:47 10° 70° (ENE) 1,963 ? 22.9°
Sets 13:10:04 0° 71° (ENE) 2,861 ? 22.7°
